THORAD DELTA 1 DEB, 8157

Orbit data source: Space-Track

THORAD DELTA 1 DEB, 8157 is space debris in SSO originally from a launch on Fri, 15 Nov 1974 UTC launched from the Air Force Western Test Range (AFWTR). Debris objects in space refer to the collection of defunct objects orbiting the Earth. Examples of debris include non-operational satellites, rocket bodies, and fragments generated from explosions, collisions, or faulty payload assembly.

Loading next visibility...
Identifier
8157, 1974-089X
Orbit
SSO
Country
Flag of USUS
Related business
Manufacturer
Unknown
Mission
Spacecraft
Bus & Motor
Unknown
Mass
Unknown
Launch date (UTC)
1974-11-15 (52 years ago)
Launch vehicle
Unknown
Launch site
Air Force Western Test Range (AFWTR)
Object type
Payload
Rocket body
Debris
Shape & HBR
Unknown shape, 0.1 m
Radar Cross Section
Medium (>0.1 m² and <1 m²)

Expand to show TLE details & history
Last TLE update: 9 hours ago

TLE from 9 hours ago
0 THORAD DELTA 1 DEB
1  8157U 74089X   26178.51874654  .00000019  00000-0  42874-3 0  9991
2  8157 102.1380 184.4818 0133575 167.2843 347.3873 12.47539019349133
Epoch: 2026-06-27T12:26Z
TLE epoch observation values (Epoch: 2026-06-27T12:26:59.701Z)
Latitude
25.08409°
Longitude
-92.14945°
Altitude
1,375.213 km
Speed
7.22 km/s
True Right ascension
00h 40m 55s
True Declination
24° 57' 46"
Sunlit
Object was in daylight at epoch
Visualization orbit readout
Latitude
Unknown
Longitude
Unknown
Altitude
Unknown
Speed
Unknown
Apparent Right ascension
Unknown
Apparent Declination
Unknown
Sunlit
N/A
Visualization observer readout
Local Sidereal Time
08:47:16
Azimuth
Unknown
Elevation
Unknown
Doppler factor
Unknown
Orbital elements
Apogee altitude
1,577.241 km
Perigee altitude
1,367.515 km
Semi-major axis
7,850.515 km
Eccentricity
0.01336
Inclination
102.138°
RAAN
184.4818°
Arg. of periapsis
167.2843°
True anomaly
347.04754°
Mean anomaly
347.3873°
Eccentric anomaly
347.21798°
Mean motion
3.1203 °/min
Orbital period
115.37 mins
BSTAR
0.00042874
Loading maneuver chart data...
Computing Atmospheric mass density...

Documentation

Showing up to 5 results
|